Home   Weather   Ahmedabad   Past weeks

Flag for India Past Weather in Ahmedabad, Gujarat, India — Yesterday and Last 2 Weeks

Now
63 °F

Haze.


Feels Like: 63 °F
Forecast: 60 / 84 °F
Wind: No wind

Location: Ahmadabad Airport

Current Time: Dec 9, 2016 at 3:56:07 am

Latest Report: Dec 9, 2016 at 3:30 am


Visibility: 2 mi

Pressure: 29.92 "Hg

Humidity: 68%

Dew Point: 52 °F

Location of AhmedabadLocation

Past Weather in Ahmedabad — Graph

°F

Ahmedabad Temperature Yesterday

Maximum temperature yesterday: 90 °F (at 3:30 pm)
Minimum temperature yesterday: 59 °F (at 6:00 am)
Average temperature yesterday: 72 °F

High & Low Weather Summary for the Past Weeks

 TemperatureHumidityPressure
High91 °F (Nov 24, 3:00 pm)88% (Nov 29, 6:00 am)30.15 "Hg (Nov 29, 6:00 am)
Low59 °F (Nov 26, 7:00 am)20% (Nov 27, 2:00 pm)29.86 "Hg (Nov 25, 4:00 pm)
Average73 °F53%29.98 "Hg
* Reported Nov 24 2:30 am — Dec 9 2:30 am, Ahmedabad, Weather by CustomWeather, © 2016

Note: Actual official high and low records may vary slightly from our data, if they occured in-between our weather recording intervals... More about our weather records

Advertising

Ahmedabad Weather History for the Previous 24 Hours

Scroll right to see more
 ConditionsComfort  
Time TempWeatherWind HumidityBarometerVisibility
2:30 am
Fri, Dec 9
61 °FHaze.No wind83%29.95 "Hg2 mi
2:00 am61 °FHaze.No wind83%29.95 "Hg2 mi
1:30 am63 °FHaze.No wind77%29.95 "Hg2 mi
1:00 am63 °FHaze.No wind83%29.95 "Hg2 mi
12:30 am64 °FHaze.No wind73%29.95 "Hg2 mi
11:30 pm
Thu, Dec 8
64 °FHaze.No wind78%29.98 "Hg2 mi
11:00 pm66 °FHaze.No wind78%29.98 "Hg2 mi
10:30 pm66 °FHaze.No wind68%29.98 "Hg2 mi
10:00 pm70 °FHaze.No wind64%29.98 "Hg2 mi
9:30 pm70 °FClear.No wind60%29.98 "Hg2 mi
9:00 pm70 °FClear.No wind64%29.98 "Hg2 mi
8:30 pm70 °FClear.No wind60%29.98 "Hg2 mi
8:00 pm72 °FClear.No wind57%29.98 "Hg2 mi
7:30 pm73 °FClear.No wind50%29.95 "Hg2 mi
7:00 pm77 °FClear.No wind44%29.95 "Hg2 mi
6:30 pm77 °FClear.No wind39%29.95 "Hg2 mi
6:00 pm81 °FClear.No wind32%29.95 "Hg3 mi
3:30 pm90 °FClear.5 mph22%29.92 "Hg4 mi
3:00 pm88 °FClear.5 mph24%29.92 "Hg4 mi
2:30 pm88 °FClear.5 mph24%29.92 "Hg4 mi
2:00 pm88 °FClear.6 mph25%29.95 "Hg4 mi
1:30 pm88 °FClear.5 mph25%29.95 "Hg4 mi
1:00 pm86 °FClear.5 mph27%29.98 "Hg4 mi
12:30 pm88 °FClear.3 mph27%30.01 "Hg3 mi
12:00 pm86 °FClear.3 mph29%30.01 "Hg3 mi
11:30 am84 °FClear.3 mph33%30.04 "Hg3 mi
8:30 am68 °FClear.3 mph53%30.04 "Hg1 mi
8:00 am63 °FHaze.2 mph64%30.01 "Hg1 mi
7:30 am61 °FHaze.No wind68%30.01 "Hg1 mi
7:00 am61 °FHaze.No wind68%29.98 "Hg2 mi
6:30 am61 °FHaze.No wind72%29.98 "Hg2 mi
6:00 am59 °FHaze.No wind77%29.98 "Hg2 mi
5:30 am61 °FHaze.No wind68%29.98 "Hg2 mi
5:00 am61 °FHaze.No wind72%29.95 "Hg2 mi
4:30 am61 °FHaze.No wind72%29.95 "Hg2 mi
4:00 am64 °FHaze.No wind64%29.95 "Hg2 mi
3:30 am64 °FHaze.No wind64%29.95 "Hg2 mi
3:00 am66 °FHaze.No wind60%29.95 "Hg2 mi
Weather by CustomWeather, © 2016

See weather overviewHow to use our weather pages